Location: Coffee Ditch
(40.9640°N, 122.7500°W)
Time: 00:29:13
(UTC+00:00)

Cosmos 1602 Rocket - Pass Details

Date: 21 December 2025
Orbit: 596 x 626 km, 82.5° (Epoch: 16 January)

Event Time Altitude Azimuth Distance (km) Brightness Sun altitude
Rises 01:30:39 0° 331° (NNW) 2,870 7.1 -8.4°
Reaches altitude 10° 01:33:51 10° 306° (NW) 1,954 6.6 -8.9°
Maximum altitude 01:36:01 14° 275° (W) 1,713 6.8 -9.3°
Drops below altitude 10° 01:38:10 10° 245° (WSW) 1,939 7.8 -9.7°
Sets 01:41:20 0° 219° (SW) 2,830 8.2 -10.2°
